Terminal Aerodrome Forecast
Issued by NWS

Home | Current Version | Previous Version | Graphics & Text | Print | Product List | Glossary On
Versions: 1 2 3 4 5 6 7 8 9 10 11 12 13 14 15 16 17 18 19 20 21 22 23 24 25 26 27 28 29 30 31 32 33 34
000
FTUS43 KLOT 161800 AAA
TAFMDW
TAF AMD
KMDW 161836Z 1619/1718 29013G23KT P6SM VCSH SCT009 OVC012
      TEMPO 1619/1621 4SM -RA BR BKN009
     FM162100 31016G25KT P6SM OVC015
     FM170100 30015G22KT P6SM OVC020
     FM171200 29012G17KT P6SM BKN025=

USA.gov is the U.S. government's official web portal to all federal, state and local government web resources and services.